| time (UTC) | temp F | wind direction | speed knots | gust knots | rain 1hr in | rain 24hr in | rain mn in | humidity % | barometer mb |
| 20260506034611 | 49 | 23 | 0.0 | 0.0 | 0.00 | 0.00 | 0.00 | 51 | 1039.9 |
| 20260506033108 | 50 | 0 | 0.9 | 1.7 | 0.00 | 0.00 | 0.00 | 50 | 1039.6 |
| 20260506031605 | 50 | 6 | 0.0 | 1.7 | 0.00 | 0.00 | 0.00 | 49 | 1039.4 |
| 20260506030103 | 50 | 105 | 0.0 | 0.9 | 0.00 | 0.00 | 0.00 | 50 | 1039.2 |
| 20260506024559 | 51 | 0 | 0.0 | 1.7 | 0.00 | 0.00 | 0.00 | 50 | 1039.4 |
| 20260506023055 | 51 | 279 | 0.0 | 0.9 | 0.00 | 0.00 | 0.00 | 50 | 1039.0 |
| 20260506021552 | 51 | 326 | 0.0 | 1.7 | 0.00 | 0.00 | 0.00 | 49 | 1038.9 |
| 20260506020050 | 50 | 240 | 0.0 | 0.9 | 0.00 | 0.00 | 0.00 | 53 | 1038.6 |
| 20260506014548 | 51 | 246 | 0.0 | 0.0 | 0.00 | 0.00 | 0.00 | 50 | 1038.5 |
| 20260506013044 | 51 | 246 | 0.0 | 0.0 | 0.00 | 0.00 | 0.00 | 49 | 1038.3 |
| 20260506011540 | 52 | 180 | 0.0 | 0.0 | 0.00 | 0.00 | 0.00 | 47 | 1038.1 |
| 20260506010038 | 53 | 255 | 0.0 | 1.7 | 0.00 | 0.00 | 0.00 | 46 | 1037.7 |
| 20260506004534 | 53 | 243 | 0.0 | 2.6 | 0.00 | 0.00 | 0.00 | 44 | 1037.8 |
| 20260506003029 | 54 | 265 | 1.7 | 2.6 | 0.00 | 0.00 | 0.00 | 43 | 1037.3 |
| 20260506001524 | 54 | 310 | 2.6 | 2.6 | 0.00 | 0.00 | 0.00 | 42 | 1037.5 |
| 20260506000022 | 54 | 279 | 3.5 | 7.0 | 0.00 | 0.00 | 0.00 | 40 | 1037.5 |
| 20260505234519 | 55 | 257 | 0.9 | 6.1 | 0.00 | 0.00 | 0.00 | 38 | 1037.5 |
| 20260505233017 | 55 | 259 | 2.6 | 10.4 | 0.00 | 0.00 | 0.00 | 39 | 1037.6 |
| 20260505231514 | 55 | 254 | 1.7 | 3.5 | 0.00 | 0.00 | 0.00 | 40 | 1037.4 |
| 20260505230012 | 55 | 262 | 1.7 | 5.2 | 0.00 | 0.00 | 0.00 | 40 | 1037.4 |
| 20260505224508 | 56 | 263 | 3.5 | 6.1 | 0.00 | 0.00 | 0.00 | 39 | 1037.7 |
| 20260505223004 | 56 | 280 | 1.7 | 4.3 | 0.00 | 0.00 | 0.00 | 40 | 1037.7 |
| 20260505221459 | 55 | 273 | 2.6 | 5.2 | 0.00 | 0.00 | 0.00 | 39 | 1037.6 |
| 20260505215956 | 55 | 270 | 4.3 | 5.2 | 0.00 | 0.00 | 0.00 | 38 | 1037.8 |
| 20260505214455 | 56 | 278 | 4.3 | 10.4 | 0.00 | 0.00 | 0.00 | 39 | 1037.7 |
| 20260505212952 | 56 | 277 | 0.9 | 4.3 | 0.00 | 0.00 | 0.00 | 37 | 1037.8 |
| 20260505211449 | 56 | 267 | 2.6 | 7.0 | 0.00 | 0.00 | 0.00 | 38 | 1037.6 |
| 20260505205944 | 56 | 281 | 5.2 | 5.2 | 0.00 | 0.00 | 0.00 | 35 | 1037.9 |
| 20260505204443 | 56 | 225 | 2.6 | 7.8 | 0.00 | 0.00 | 0.00 | 36 | 1037.9 |
| 20260505202938 | 56 | 228 | 3.5 | 6.1 | 0.00 | 0.00 | 0.00 | 38 | 1038.0 |
| 20260505201434 | 56 | 225 | 0.0 | 7.0 | 0.00 | 0.00 | 0.00 | 36 | 1037.9 |
| 20260505195930 | 56 | 219 | 3.5 | 11.3 | 0.00 | 0.00 | 0.00 | 35 | 1037.8 |
| 20260505194428 | 57 | 254 | 6.1 | 9.6 | 0.00 | 0.00 | 0.00 | 33 | 1038.0 |
| 20260505192924 | 56 | 172 | 0.0 | 5.2 | 0.00 | 0.00 | 0.00 | 37 | 1038.1 |
| 20260505191424 | 56 | 253 | 6.1 | 11.3 | 0.00 | 0.00 | 0.00 | 35 | 1038.3 |
| 20260505185922 | 56 | 267 | 3.5 | 7.0 | 0.00 | 0.00 | 0.00 | 36 | 1038.5 |
| 20260505184419 | 56 | 270 | 4.3 | 5.2 | 0.00 | 0.00 | 0.00 | 39 | 1038.0 |
| 20260505182915 | 56 | 217 | 7.8 | 7.8 | 0.00 | 0.00 | 0.00 | 35 | 1038.0 |
| 20260505181412 | 57 | 278 | 6.1 | 10.4 | 0.00 | 0.00 | 0.00 | 37 | 1037.9 |
| 20260505175907 | 56 | 273 | 3.5 | 7.8 | 0.00 | 0.00 | 0.00 | 36 | 1037.8 |
| 20260505174404 | 56 | 253 | 3.5 | 7.8 | 0.00 | 0.00 | 0.00 | 37 | 1037.8 |
| 20260505172859 | 54 | 237 | 7.0 | 13.9 | 0.00 | 0.00 | 0.00 | 37 | 1037.9 |
| 20260505171359 | 53 | 256 | 4.3 | 9.6 | 0.00 | 0.00 | 0.00 | 39 | 1037.7 |
| 20260505165854 | 54 | 280 | 4.3 | 6.1 | 0.00 | 0.00 | 0.00 | 39 | 1038.1 |
| 20260505164354 | 53 | 288 | 4.3 | 8.7 | 0.00 | 0.00 | 0.00 | 41 | 1037.7 |
| 20260505162850 | 53 | 317 | 2.6 | 6.1 | 0.00 | 0.00 | 0.00 | 42 | 1037.7 |
| 20260505161345 | 52 | 218 | 1.7 | 7.8 | 0.00 | 0.00 | 0.00 | 42 | 1037.8 |
| 20260505152834 | 51 | 276 | 2.6 | 5.2 | 0.00 | 0.00 | 0.00 | 45 | 1037.9 |
| 20260505151334 | 50 | 246 | 5.2 | 6.1 | 0.00 | 0.00 | 0.00 | 43 | 1037.8 |
| 20260505124308 | 49 | 270 | 2.6 | 4.3 | 0.00 | 0.00 | 0.00 | 53 | 1037.5 |
| 20260505122808 | 48 | 270 | 2.6 | 2.6 | 0.00 | 0.00 | 0.00 | 55 | 1037.7 |
| 20260505121305 | 48 | 270 | 1.7 | 2.6 | 0.00 | 0.00 | 0.00 | 53 | 1037.4 |
| 20260505115802 | 48 | 185 | 0.9 | 3.5 | 0.00 | 0.00 | 0.00 | 53 | 1038.0 |
| 20260505114259 | 48 | 251 | 0.9 | 3.5 | 0.00 | 0.00 | 0.00 | 53 | 1037.1 |
| 20260505112800 | 48 | 223 | 3.5 | 4.3 | 0.00 | 0.00 | 0.00 | 52 | 1036.5 |
| 20260505111300 | 48 | 263 | 2.6 | 2.6 | 0.00 | 0.00 | 0.00 | 53 | 1035.9 |
| 20260505101246 | 49 | 311 | 2.6 | 5.2 | 0.00 | 0.00 | 0.00 | 52 | 1035.8 |
| 20260505095747 | 49 | 208 | 1.7 | 5.2 | 0.00 | 0.00 | 0.00 | 52 | 1035.2 |
| 20260505094243 | 50 | 245 | 1.7 | 3.5 | 0.00 | 0.00 | 0.00 | 53 | 1035.4 |
| 20260505092739 | 50 | 293 | 6.1 | 6.1 | 0.00 | 0.00 | 0.00 | 54 | 1035.1 |
| 20260505091239 | 50 | 313 | 4.3 | 8.7 | 0.00 | 0.00 | 0.00 | 55 | 1035.1 |
| 20260505085737 | 51 | 11 | 0.0 | 2.6 | 0.00 | 0.00 | 0.00 | 55 | 1035.0 |
| 20260505084237 | 51 | 294 | 3.5 | 7.0 | 0.00 | 0.00 | 0.00 | 54 | 1034.2 |
| 20260505082732 | 52 | 315 | 1.7 | 3.5 | 0.00 | 0.00 | 0.00 | 54 | 1033.7 |
| 20260505081229 | 52 | 48 | 0.0 | 4.3 | 0.00 | 0.00 | 0.00 | 53 | 1033.6 |
| 20260505075728 | 53 | 342 | 1.7 | 3.5 | 0.00 | 0.00 | 0.00 | 55 | 1032.9 |
| 20260505074226 | 54 | 286 | 0.9 | 2.6 | 0.00 | 0.00 | 0.00 | 53 | 1032.8 |
| 20260505072723 | 56 | 306 | 0.0 | 5.2 | 0.00 | 0.00 | 0.00 | 52 | 1032.9 |
| 20260505071218 | 56 | 321 | 1.7 | 4.3 | 0.00 | 0.00 | 0.00 | 50 | 1032.3 |
| 20260505065714 | 57 | 259 | 1.7 | 4.3 | 0.00 | 0.00 | 0.00 | 48 | 1032.2 |
| 20260505064212 | 58 | 66 | 0.0 | 2.6 | 0.00 | 0.00 | 0.00 | 47 | 1032.0 |
| 20260505062707 | 58 | 260 | 0.0 | 2.6 | 0.00 | 0.00 | 0.00 | 46 | 1032.1 |
| 20260505061206 | 59 | 301 | 1.7 | 9.6 | 0.00 | 0.00 | 0.00 | 43 | 1031.6 |
| 20260505055700 | 60 | 295 | 1.7 | 7.0 | 0.00 | 0.00 | 0.00 | 42 | 1031.6 |
| 20260505054158 | 60 | 340 | 0.0 | 3.5 | 0.00 | 0.00 | 0.00 | 43 | 1031.5 |
| 20260505052655 | 60 | 232 | 2.6 | 5.2 | 0.00 | 0.00 | 0.00 | 42 | 1031.2 |
| 20260505051153 | 60 | 248 | 2.6 | 6.1 | 0.00 | 0.00 | 0.00 | 42 | 1031.0 |
| 20260505041146 | 63 | 294 | 5.2 | 6.1 | 0.00 | 0.00 | 0.00 | 43 | 1030.5 |
| 20260505035642 | 64 | 292 | 3.5 | 7.8 | 0.00 | 0.00 | 0.00 | 43 | 1030.4 |